Location: Bronnegerveen
(52.9548°N, 6.8388°E)
Time: 02:53:39
(UTC+00:00)

S3M - Pass Details

Date: 15 June 2025
Orbit: 949 x 1002 km, 83.0° (Epoch: 06 July)

Event Time Altitude Azimuth Distance (km) Brightness Sun altitude
Rises 02:14:37 0° 350° (N) 3,728 7.8 -6.1°
Reaches altitude 10° 02:17:10 10° 352° (N) 2,780 7.1 -5.8°
Maximum altitude 02:23:34 73° 77° (ENE) 1,052 4.4 -5.2°
Drops below altitude 10° 02:29:56 10° 163° (SSE) 2,770 6.1 -4.6°
Sets 02:32:28 0° 165° (SSE) 3,714 6.7 -4.4°
